Gainesville, GA

3:51 PM EDT on September 22, 2017 (GMT -0400)
Gilmer Memorial

Weather History for KGVL - September, 2014

Change the Weather History Date:

Thursday, September 25, 2014

  Actual Average Record
Temperature  
Mean Temperature 68 °F 69 °F  
Max Temperature 75 °F 78 °F 92 °F (1961)
Min Temperature 61 °F 59 °F 45 °F (1937)
Degree Days  
Heating Degree Days 0 1  
Month to date heating degree days 0 5  
Since 1 July heating degree days 0 5  
Cooling Degree Days 3 4  
Month to date cooling degree days 242 197  
Year to date cooling degree days 1589 1523  
Growing Degree Days 18 (Base 50)    
Moisture  
Dew Point 60 °F    
Average Humidity 82    
Maximum Humidity 100    
Minimum Humidity 64    
Precipitation  
Precipitation 0.01 in 0.16 in 2.27 in (1997)
Month to date precipitation 4.13 3.90  
Year to date precipitation 32.92 40.15  
Sea Level Pressure  
Sea Level Pressure 30.23 in    
Wind  
Wind Speed 7 mph (ENE)    
Max Wind Speed 13 mph    
Max Gust Speed 17 mph    
Visibility 7 miles    
Events      
T = Trace of Precipitation, MM = Missing Value Source: NWS Daily Summary

Daily Weather History Graph

Daily Weather History Graph

Search for Another Location

Airport or City:

Trip Planner

Search our weather history database for the weather conditions in past years. The results will help you decide how hot, cold, wet, or windy it might be!

Date:

Astronomy

Sep. 25, 2014 Rise Set
Actual Time 7:25 AM EDT 7:27 PM EDT
Civil Twilight 7:00 AM EDT 7:52 PM EDT
Nautical Twilight 6:31 AM EDT 8:21 PM EDT
Astronomical Twilight 6:01 AM EDT 8:51 PM EDT
Moon 8:38 AM EDT (9/25) 8:16 PM EDT (9/25)
Length of Visible Light 12h 52m
Length of Day
12h 02m
New Moon, 2% of the Moon is Illuminated
Sep 25
New Moon
Oct 1
First Quarter
Oct 8
Full
Oct 15
Last Quarter
Oct 23
New

Hourly Weather History & Observations

Time (EDT) Temp. Dew Point Humidity Pressure Visibility Wind Dir Wind Speed Gust Speed Precip Events Conditions
12:53 AM 63.0 °F 54.0 °F 72% 30.24 in 10.0 mi East 8.1 mph - N/A   Overcast
1:53 AM 62.1 °F 57.0 °F 84% 30.24 in 10.0 mi ENE 5.8 mph - N/A   Overcast
2:53 AM 61.0 °F 59.0 °F 93% 30.23 in 3.0 mi NE 5.8 mph - N/A   Overcast
2:57 AM 61.0 °F 59.0 °F 93% 30.26 in 2.0 mi NE 5.8 mph - N/A   Overcast
3:00 AM 61.0 °F 59.0 °F 93% 30.26 in 1.8 mi NE 4.6 mph - N/A   Overcast
3:17 AM 61.0 °F 60.1 °F 97% 30.26 in 2.5 mi NE 6.9 mph - N/A   Overcast
3:29 AM 61.0 °F 60.1 °F 97% 30.26 in 3.0 mi NE 5.8 mph - N/A   Overcast
3:38 AM 61.0 °F 60.1 °F 97% 30.25 in 2.5 mi NE 6.9 mph - N/A   Overcast
3:51 AM 60.8 °F 60.8 °F 100% 30.26 in 2.5 mi NE 3.5 mph - N/A   Overcast
3:53 AM 61.0 °F 60.1 °F 97% 30.23 in 2.5 mi NE 5.8 mph - N/A   Overcast
4:01 AM 61.0 °F 60.1 °F 97% 30.26 in 3.0 mi NE 5.8 mph - N/A   Overcast
4:51 AM 60.8 °F 60.8 °F 100% 30.26 in 2.0 mi ENE 6.9 mph - N/A   Overcast
4:53 AM 61.0 °F 60.1 °F 97% 30.22 in 2.0 mi ENE 5.8 mph - N/A   Overcast
5:03 AM 61.0 °F 60.1 °F 97% 30.26 in 2.5 mi NE 6.9 mph - 0.00 in   Overcast
5:19 AM 61.0 °F 60.1 °F 97% 30.26 in 2.0 mi ENE 6.9 mph - 0.00 in   Overcast
5:26 AM 61.0 °F 60.1 °F 97% 30.26 in 2.0 mi ENE 6.9 mph - 0.01 in   Overcast
5:49 AM 60.8 °F 60.8 °F 100% 30.26 in 3.0 mi NE 6.9 mph - 0.01 in   Overcast
5:50 AM 61.0 °F 60.1 °F 97% 30.23 in 3.0 mi ENE 6.9 mph - 0.01 in   Overcast
6:16 AM 61.0 °F 60.1 °F 97% 30.27 in 3.0 mi NE 8.1 mph - N/A   Overcast
6:24 AM 61.0 °F 60.1 °F 97% 30.27 in 2.5 mi NE 6.9 mph - N/A   Overcast
6:32 AM 61.0 °F 60.1 °F 97% 30.27 in 3.0 mi ENE 6.9 mph - N/A   Overcast
6:51 AM 62.6 °F 60.8 °F 94% 30.27 in 8.0 mi NE 6.9 mph - N/A   Overcast
6:53 AM 62.1 °F 60.1 °F 93% 30.24 in 9.0 mi ENE 6.9 mph - N/A   Overcast
7:04 AM 62.1 °F 60.1 °F 93% 30.27 in 10.0 mi ENE 4.6 mph - N/A   Overcast
7:17 AM 62.1 °F 60.1 °F 93% 30.27 in 10.0 mi NE 6.9 mph - N/A   Overcast
7:53 AM 62.1 °F 60.1 °F 93% 30.25 in 10.0 mi ENE 5.8 mph - N/A   Overcast
8:50 AM 62.6 °F 60.8 °F 94% 30.27 in 10.0 mi ENE 6.9 mph - N/A   Overcast
8:53 AM 64.0 °F 61.0 °F 90% 30.25 in 10.0 mi ENE 9.2 mph - N/A   Overcast
9:38 AM 64.9 °F 61.0 °F 87% 30.27 in 10.0 mi ENE 10.4 mph - N/A   Mostly Cloudy
9:53 AM 66.0 °F 61.0 °F 84% 30.25 in 10.0 mi Variable 6.9 mph - N/A   Mostly Cloudy
10:08 AM 66.0 °F 61.0 °F 84% 30.27 in 10.0 mi ENE 6.9 mph - N/A   Mostly Cloudy
10:53 AM 68.0 °F 61.0 °F 78% 30.24 in 10.0 mi East 9.2 mph - N/A   Overcast
11:53 AM 70.0 °F 60.1 °F 71% 30.24 in 10.0 mi East 9.2 mph - N/A   Overcast
12:50 PM 71.6 °F 60.8 °F 69% 30.26 in 10.0 mi ESE 6.9 mph - N/A   Mostly Cloudy
12:53 PM 71.1 °F 60.1 °F 68% 30.23 in 10.0 mi East 5.8 mph - N/A   Mostly Cloudy
1:53 PM 73.0 °F 60.1 °F 64% 30.21 in 10.0 mi East 10.4 mph - N/A   Overcast
2:53 PM 73.9 °F 61.0 °F 64% 30.18 in 10.0 mi East 8.1 mph - N/A   Overcast
3:36 PM 73.9 °F 61.0 °F 64% 30.19 in 10.0 mi East 6.9 mph - N/A   Overcast
3:53 PM 73.9 °F 61.0 °F 64% 30.16 in 10.0 mi East 11.5 mph - N/A   Mostly Cloudy
4:11 PM 75.0 °F 61.0 °F 62% 30.18 in 10.0 mi ESE 8.1 mph - N/A   Mostly Cloudy
4:53 PM 73.9 °F 61.0 °F 64% 30.15 in 10.0 mi East 11.5 mph - N/A   Scattered Clouds
5:53 PM 73.0 °F 61.0 °F 66% 30.15 in 10.0 mi East 10.4 mph - N/A   Clear
6:53 PM 70.0 °F 61.0 °F 73% 30.16 in 10.0 mi SE 5.8 mph - N/A   Clear
7:53 PM 68.0 °F 62.1 °F 81% 30.17 in 10.0 mi East 4.6 mph - N/A   Mostly Cloudy
8:53 PM 66.9 °F 62.1 °F 84% 30.18 in 10.0 mi East 3.5 mph - N/A   Overcast
9:53 PM 66.0 °F 62.1 °F 87% 30.19 in 10.0 mi East 5.8 mph - N/A   Mostly Cloudy
10:53 PM 66.0 °F 61.0 °F 84% 30.19 in 10.0 mi East 4.6 mph - N/A   Scattered Clouds
11:15 PM 66.0 °F 62.1 °F 87% 30.23 in 10.0 mi ENE 4.6 mph - N/A   Mostly Cloudy
11:53 PM 66.9 °F 62.1 °F 84% 30.20 in 10.0 mi ENE 4.6 mph - N/A   Overcast